« Back
NWS Peachtree City, Ga » Text Product » GA Regional Weather Roundup


Printer-friendly Version
Current Version              Previous Versions:   1  2  3  4  5  6  7  8  9  

Regional Weather Roundup

092
ASUS42 KFFC 250303
RWRGA
WEATHER ROUNDUP FOR GEORGIA
NATIONAL WEATHER SERVICE PEACHTREE CITY GA
1100 PM EDT SUN JUL 24 2016

NOTE: "FAIR" INDICATES FEW OR NO CLOUDS BELOW 12,000 FEET WITH NO
SIGNIFICANT WEATHER AND/OR OBSTRUCTIONS TO VISIBILITY.

* = USE WITH CAUTION. THE STATIONS MARKED WITH AN ASTERISK MAY NOT
REPORT WEATHER SUCH AS PRECIPITATION, FOG, OR THUNDER AND ARE NOT
QUALITY CONTROLLED BY NWS.

THE REMARK "TC" DENOTES TEMPERATURE READING IN DEGREES CELSIUS.

GAZ001>058-250400-
NORTH GEORGIA

CITY           SKY/WX    TMP DP  RH WIND       PRES   REMARKS
ATLANTA        PTCLDY    84  70  62 SW3       30.07R
ATHENS         CLEAR     81  73  76 CALM      30.06R
CHAMBLEE       PTCLDY    77  70  79 CALM      30.07R
PEACHTREE CITY CLEAR     78  71  79 CALM      30.07R
ROME           PTCLDY    83  73  72 CALM      30.04R
WEST ATLANTA   CLEAR     78  70  76 CALM      30.06R
CARTERSVILLE   PTCLDY    76  72  87 CALM      30.06R


CITY           SKY/WX    TMP DP  RH WIND       PRES   REMARKS
DALTON*        PTCLDY    77  77 100 CALM      30.05S
MARIETTA       PTCLDY    75  72  91 CALM      30.07R
KENNESAW*      CLEAR     73  72  94 CALM      30.05R
CANTON*        PTCLDY    77  64  65 CALM      30.09R
BLAIRSVILLE*     N/A    N/A N/A N/A MISG      30.13S
$$

GAZ059>098-102>109-250400-
CENTRAL GEORGIA

CITY           SKY/WX    TMP DP  RH WIND       PRES   REMARKS
AUGUSTA-BUSH   CLEAR     83  72  69 S3        30.04R
AUGUSTA-DANIEL CLEAR     86  72  62 SE5       30.06R HX  92
COLUMBUS       CLEAR     87  69  54 CALM      30.03R HX  91
MACON          CLEAR     82  75  79 CALM      30.04R
ROBINS AFB     CLEAR     80  76  90 CALM      30.03R


CITY           SKY/WX    TMP DP  RH WIND       PRES   REMARKS
LAGRANGE*      CLEAR     80  75  86 CALM      30.06R
MILLEDGEVILLE* CLEAR     79  77  94 CALM      30.05R
$$

GAZ099>101-110>166-250400-
SOUTH GEORGIA

CITY           SKY/WX    TMP DP  RH WIND       PRES   REMARKS
SAVANNAH       CLEAR     80  74  81 S6        30.06R
VALDOSTA       MOCLDY    79  73  82 S3        30.07R
ALMA           PTCLDY    77  72  84 S3        30.05R
ST SIMONS      CLEAR     85  72  65 S9        30.05R HX  91
FT STEWART     CLEAR     78  74  88 CALM      30.03R
ALBANY         CLOUDY    85  71  63 S6        30.06R HX  90
HUNTER AFB     CLEAR     82  77  84 S5        30.03R HX  91
MOODY AFB      PTCLDY    76  73  91 CALM      30.07R
BRUNSWICK      CLEAR     84  75  74 S3        30.06R HX  92


CITY           SKY/WX    TMP DP  RH WIND       PRES   REMARKS
BAINBRIDGE*    CLOUDY    81  72  74 CALM      30.05R
MOULTRIE*      RAIN      77  73  88 E6        30.08R
VIDALIA*       CLEAR     81  70  69 CALM      30.07R
WAYCROSS*      CLEAR     82  76  82 S6        30.06R HX  90
DOUGLAS*       CLOUDY    81  70  69 CALM      30.08R
$$




USA.gov is the U.S. government's official web portal to all federal, state and local government web resources and services.